Regional Weather Roundup
Issued by NWS

Home | Current Version | Previous Version | Graphics & Text | Print | Product List | Glossary On
Versions: 1 2 3 4 5 6 7 8 9 10 11 12 13 14 15 16 17 18 19 20 21 22 23 24 25 26 27 28 29 30 31 32 33 34 35 36 37 38 39 40 41 42 43 44 45 46 47 48 49 50
000
ASUS43 KDMX 151606
RWRIA

WEATHER ROUNDUP FOR IOWA
NATIONAL WEATHER SERVICE DES MOINES IA
1000 AM CST SUN JAN 15 2017

NOTE: "FAIR" INDICATES FEW OR NO CLOUDS BELOW 12,000 FEET WITH NO
SIGNIFICANT WEATHER AND/OR OBSTRUCTIONS TO VISIBILITY.

* - THESE STATIONS ARE NOT NWS STATIONS...THUS NOT UNDER NWS
QUALITY CONTROL.  THEY ALSO DO NOT REPORT WEATHER SUCH
AS PRECIPITATION OR FOG.

IAZ001>003-012>014-020>022-031>034-043>046-151700-
   NORTHWEST IOWA

CITY           SKY/WX    TMP DP  RH WIND       PRES   REMARKS
CARROLL *      CLOUDY    28  23  80 S7        30.34S WCI  21
CHEROKEE *     CLOUDY    20  19  93 CALM      30.33S
DENISON *      CLOUDY    28  19  69 S5        30.32S WCI  23
LE MARS *      CLOUDY    23  18  80 S6        30.33S WCI  16
ORANGE CITY *  CLOUDY    25  19  80 S5        30.30F WCI  19
SHELDON *      CLOUDY    23  21  93 S5        30.30S WCI  17
SIOUX CITY     SUNNY     24  19  81 SE6       30.33F WCI  17
SPENCER        CLOUDY    16  12  84 CALM      30.32S FOG
STORM LAKE *   CLOUDY    25  18  74 S7        30.32S WCI  17
$$

IAZ055>058-069>071-079>083-090>094-151700-
   SOUTHWEST IOWA

CITY           SKY/WX    TMP DP  RH WIND       PRES   REMARKS
ATLANTIC *     CLOUDY    32  18  55 SE7       30.34F WCI  26
CLARINDA *     CLOUDY    30  27  86 SE5       30.37S WCI  25
COUNCIL BLFS * CLOUDY    30  19  64 SE5       30.34R WCI  25
CRESTON *      CLOUDY    30  21  69 SE10      30.36R WCI  21
HARLAN  *      CLOUDY    30  19  64 S5        30.38S WCI  25
LAMONI         CLOUDY    29  24  82 SE7       30.34F WCI  22
RED OAK *      PTSUNNY   32  21  64 MISG      30.35S
SHENANDOAH *   MIX PCPN  32  27  80 S7        30.36S WCI  26
$$

IAZ047>049-059>061-072>074-084-151700-
   CENTRAL IOWA

CITY           SKY/WX    TMP DP  RH WIND       PRES   REMARKS
AMES           CLOUDY    27  19  72 SE5       30.37S WCI  22
ANKENY *       CLOUDY    28  16  59 S7        30.39S WCI  21
BOONE *        CLOUDY    27  19  74 S6        30.35R WCI  20
CHARITON *     CLOUDY    30  21  69 VRB3      30.38R
DES MOINES     CLOUDY    30  18  60 SE7       30.38R WCI  23
GRINNELL*      CLOUDY    28  17  64 S6        30.38S WCI  21
KNOXVILLE *    CLOUDY    28  18  64 SE5       30.37R WCI  23
MARSHALLTOWN   CLOUDY    24  20  84 E3        30.37F
NEWTON *       CLOUDY    28  18  64 SE7       30.37S WCI  21
PELLA *        MOSUNNY   29  21  70 SE5       30.41R WCI  24
PERRY *          N/A     28  23  82 S5        30.37S WCI  22
$$

IAZ004>006-015-016-023>025-035-036-151700-
   NORTH CENTRAL IOWA

CITY           SKY/WX    TMP DP  RH WIND       PRES   REMARKS
ALGONA *       CLOUDY    21  19  93 S6        30.34R WCI  14
CLARION *      CLOUDY    25  21  86 S7        30.35F WCI  17
ESTHERVILLE    CLOUDY    17  16  95 S5        30.32S FOG     WCI  10
FORT DODGE *   CLOUDY    25  18  74 CALM      30.37R
MASON CITY     CLOUDY    16  13  88 CALM      30.37S
FOREST CITY *    N/A     21  18  86 S3        30.35S
WEBSTER CITY * CLOUDY    23  18  80 S6        30.34S WCI  16
IOWA FALLS *     N/A     24  19  81 E3        30.37S
$$

IAZ007>011-017>019-026>030-037>042-050>054-066-151700-
   NORTHEAST IOWA

CITY           SKY/WX    TMP DP  RH WIND       PRES   REMARKS
CEDAR RAPIDS   MOSUNNY   26  16  65 E5        30.38F WCI  20
CHARLES CITY * CLOUDY    16  14  93 SE6       30.38F WCI   7
CLINTON *      CLOUDY    26  17  68 SE3       30.42F
DECORAH *      CLOUDY    16  14  93 CALM      30.37F
DUBUQUE        CLOUDY    21  15  78 S3        30.40S
MONTICELLO *   CLOUDY    25  18  74 SE3       30.40F
OELWEIN *      CLOUDY    19  16  86 SE3       30.39S
WATERLOO       SUNNY     22  17  81 SE3       30.39S
$$

IAZ064-065-067-068-078-151700-
   EAST CENTRAL IOWA

CITY           SKY/WX    TMP DP  RH WIND       PRES   REMARKS
DAVENPORT      CLOUDY    26  12  55 E3        30.42S
IOWA CITY      MOSUNNY   28  17  63 VRB3      30.42F
MUSCATINE *    CLOUDY    28  16  59 SE5       30.42F WCI  23
QUAD CITIES    CLOUDY    28  17  63 E3        30.41F
$$

IAZ062-063-075>077-085>089-095>099-151700-
   SOUTHEAST IOWA

CITY           SKY/WX    TMP DP  RH WIND       PRES   REMARKS
BURLINGTON     MOSUNNY   29  20  69 E5        30.40F WCI  24
FAIRFIELD *    CLOUDY    30  18  59 SE7       30.39S WCI  23
FORT MADISON * CLOUDY    30  25  80 E6        30.40F WCI  24
KEOKUK *       CLOUDY    30  25  80 SE6       30.41R WCI  24
OSKALOOSA *      N/A     29  19  68 SE7       30.40R WCI  22
CENTERVILLE *    N/A     28  23  80 CALM      30.39R
OTTUMWA        PTSUNNY   30  18  60 SE7       30.37S WCI  23
WASHINGTON *   MOSUNNY   28  16  59 SE6       30.41R WCI  22
$$

ABBREVIATIONS USED IN REMARKS
   TC - TEMPERATURES IN CELSIUS
  WCI - WIND CHILL INDEX
   HX - HEAT INDEX
  VSB - VISIBILITY
$$





USA.gov is the U.S. government's official web portal to all federal, state and local government web resources and services.